This is the latest recevied weather packets stored in our database for station/object WX7EM. If no packets are shown the sender has not sent any weather packets the latest 10 day(s).
| Time | Temp. | Humidity | Pressure | Rain* | Wind** | Luminosity | Snow |
|---|---|---|---|---|---|---|---|
| 1777604456 | 19.44° C | 68% | 1013.2 hPa | 0 mm | - | 11 W/m² | - |
| 1777604155 | 20° C | 68% | 1013.2 hPa | 0 mm | - | 15 W/m² | - |
| 1777603852 | 20° C | 67% | 1013.3 hPa | 0 mm | - | 20 W/m² | - |
| 1777603548 | 20.56° C | 66% | 1013.2 hPa | 0 mm | - | 24 W/m² | - |
| 1777603244 | 21.67° C | 60% | 1013.2 hPa | 0 mm | - | 29 W/m² | - |
| 1777602940 | 22.22° C | 58% | 1012.9 hPa | 0 mm | - | 40 W/m² | - |
| 1777602636 | 22.78° C | 56% | 1012.9 hPa | 0 mm | - | 50 W/m² | - |
| 1777602330 | 22.78° C | 55% | 1012.8 hPa | 0 mm | - | 58 W/m² | - |
| 1777602027 | 22.78° C | 55% | 1012.9 hPa | 0 mm | - | 61 W/m² | - |
| 1777601721 | 22.78° C | 55% | 1012.9 hPa | 0 mm | - | 61 W/m² | - |
| 1777601417 | 22.78° C | 57% | 1012.9 hPa | 0 mm | - | 56 W/m² | - |
| 1777601114 | 22.78° C | 55% | 1013 hPa | 0 mm | - | 50 W/m² | - |
| 1777600812 | 23.33° C | 55% | 1013.2 hPa | 0 mm | - | 48 W/m² | - |
| 1777600507 | 23.33° C | 54% | 1013.1 hPa | 0 mm | - | 46 W/m² | - |
| 1777600203 | 23.89° C | 53% | 1013.2 hPa | 0 mm | - | 51 W/m² | - |
| 1777599898 | 23.89° C | 53% | 1013.2 hPa | 0 mm | - | 54 W/m² | - |
| 1777599595 | 23.89° C | 52% | 1013.1 hPa | 0 mm | - | 53 W/m² | - |
| 1777599292 | 23.89° C | 50% | 1013.3 hPa | 0 mm | - | 63 W/m² | - |
| 1777598988 | 25° C | 49% | 1013.3 hPa | 0 mm | - | 66 W/m² | - |
| 1777598685 | 25° C | 48% | 1013.4 hPa | 0 mm | - | 128 W/m² | - |
| 1777598381 | 25° C | 47% | 1013.3 hPa | 0 mm | - | 128 W/m² | - |
| 1777598080 | 25° C | 46% | 1013.3 hPa | 0 mm | - | 143 W/m² | - |
| 1777597779 | 25° C | 45% | 1013.4 hPa | 0 mm | - | 146 W/m² | - |
| 1777597474 | 25° C | 44% | 1013.2 hPa | 0 mm | - | 164 W/m² | - |
| 1777597170 | 25° C | 45% | 1013.6 hPa | 0 mm | - | 185 W/m² | - |
* Rain latest hour (hover to see other rain measurements)
** Current wind speed in m/s (hover to see current wind gust speed)